Regional Weather Roundup
Issued by NWS

Home | Current Version | Previous Version | Text Only | Print | Product List | Glossary On
Versions: 1 2 3 4 5 6 7 8 9 10 11 12 13 14 15 16 17 18 19 20 21 22 23 24 25 26 27 28 29 30 31 32 33 34 35 36 37 38 39 40 41 42 43 44 45 46 47 48 49 50
000
ASUS43 KTOP 191508
RWRKS

WEATHER ROUNDUP FOR KANSAS
NATIONAL WEATHER SERVICE GOODLAND KS
1000 AM CDT THU OCT 19 2017

NOTE:  "FAIR" INDICATES FEW OR NO CLOUDS BELOW 12,000 FEET WITH NO
SIGNIFICANT WEATHER AND/OR OBSTRUCTIONS TO VISIBILITY.

KSZ001>006-013>018-027>032-041>047-191600-
NORTHWEST KANSAS

CITY           SKY/WX    TMP DP  RH WIND       PRES   REMARKS
GOODLAND       SUNNY     57  39  51 S10       30.07S
HAYS           SUNNY     54  43  66 CALM      30.08R
HILL CITY      SUNNY     54  42  64 W3        30.08R HAZE
RUSSELL        SUNNY     55  46  71 S6        30.06R
$$

KSZ061>065-074>080-084>089-191600-
SOUTHWEST KANSAS

CITY           SKY/WX    TMP DP  RH WIND       PRES   REMARKS
DODGE CITY     CLOUDY    59  47  64 S6        30.10R
ELKHART          N/A     49  43  80 W2          N/A
GARDEN CITY    SUNNY     56  45  66 S7        30.08R
GREAT BEND     SUNNY     58  50  75 S8        30.08R
LIBERAL        CLOUDY    58  47  66 SE5       30.10R
$$

KSZ066>073-081>083-090>101-191600-
SOUTHEAST KANSAS

CITY           SKY/WX    TMP DP  RH WIND       PRES   REMARKS
CHANUTE        SUNNY     65  50  58 S13       30.15R
COFFEYVILLE    SUNNY     63  53  70 S12       30.15S
HUTCHINSON     SUNNY     60  52  74 S8        30.09R
MEDICINE LODGE   N/A     57  47  69 SE6       30.11R
NEWTON         SUNNY     62  48  60 S14       30.11R
PARSONS        SUNNY     64  51  62 S8        30.17R
WICHITA INTL   MOSUNNY   61  50  67 S14       30.11R
WICHITA JABRA  SUNNY     62  49  62 S13       30.11R
WICHITA MCCONL SUNNY     63  47  56 SW14      30.11R
WINFIELD       SUNNY     61  51  70 S10       30.15R
$$

KSZ007>012-019>026-033>040-048>060-102>105-191600-
NORTHEAST KANSAS

CITY           SKY/WX    TMP DP  RH WIND       PRES   REMARKS
CONCORDIA      SUNNY     54  51  90 CALM      30.07R
EMPORIA        SUNNY     60  48  64 S15       30.11R
LAWRENCE       SUNNY     60  52  74 CALM      30.12R
MANHATTAN      SUNNY     59  52  77 SW6       30.09R
MARYSVILLE     SUNNY     57  52  82 S6        30.08S
OLATHE IND     SUNNY     62  50  64 S10       30.13R
OLATHE EXE     SUNNY     61  49  64 S8        30.13R
SALINA         SUNNY     61  53  75 S5        30.09R
TOPEKA BILLARD SUNNY     61  52  72 S5        30.11R
TOPEKA FORBES  SUNNY     63  51  65 SW12      30.11R
$$




USA.gov is the U.S. government's official web portal to all federal, state and local government web resources and services.